Weather in Bhaktapur

Nepal     27°40′28″N   85°25′46″E
temp.,
°C
wind,
m/s
gust,
m/s
humid.,
%
clouds,
%
prec.,
mm/h
press.,
hPa
HPBL,
m
17 may, tue
tue1723:45+18n11700 0.7 100715
02:45+17n11702 0.0 100615
05:45+17n11641 0.0 100714
08:45+25wsw11440 0.0 1006572
11:45+30w352629 0.0 10043487
14:45+31wsw452564 0.0 10023604
17:45+24nw584917 0.0 1004559
20:45+20nnw225691 0.0 100734
18 may, wed
wed1823:45+19n11514 0.0 100714
02:45+19nnw01492 0.0 100613
05:45+18ese01511 0.0 100815
08:45+26se11342 0.0 1008568
11:45+30wnw232184 0.0 10053987
14:45+20s555795 1.7 1008461
17:45+21se225347 2.2 1007344
20:45+18ene11599 0.0 100916
19 may, thu
thu1923:45+18nnw01545 0.0 100813
02:45+18se01523 0.0 100713
05:45+17nnw115425 0.0 100912
08:45+25sse013944 0.0 1009578
11:45+30s142883 0.0 10063360
14:45+25e234698 0.2 1004819
17:45+20s227883 3.3 1005148
20:45+17e239257 4.6 1008174
20 may, fri
fri2023:45+18ene018195 4.6 100630
02:45+18se117157 0.0 100614
05:45+18wnw007357 0.0 100713
08:45+23ene225126 0.1 1007504
11:45+28se223632 0.1 10042184
14:45+22s446986 3.2 1003534
17:45+17ne1291100 11.3 1004152
20:45+17wnw3492100 0.9 1006173
21 may, sat
sat2123:45+16ene2394100 4.8 1005168
02:45+17se1289100 0.1 100264
05:45+17ene008079 0.1 100315
08:45+23se115559 0.0 1003570
11:45+26sse224491 0.3 10012206
14:45+19s228093 3.3 1001236
17:45+19e118255 7.8 1001138
20:45+16wnw229299 2.8 100351